Weather History for Astoria, OR

Change the Weather History Date:

Sunday, August 4, 2013

  Actual Average Record
Temperature  
Mean Temperature 62 °F 61 °F  
Max Temperature 67 °F 68 °F 92 °F (2012)
Min Temperature 56 °F 54 °F 43 °F (1982)
Degree Days  
Heating Degree Days 3 4  
Month to date heating degree days 16 16  
Since 1 June heating degree days 339 408  
Since 1 July heating degree days 158 166  
Cooling Degree Days 0 0  
Month to date cooling degree days 0 0  
Year to date cooling degree days 4 3  
Since 1 June cooling degree days 3 3  
Growing Degree Days 10 (Base 50)    
Moisture  
Dew Point 56 °F    
Average Humidity 87    
Maximum Humidity 100    
Minimum Humidity 73    
Precipitation  
Precipitation 0.00 in 0.03 in 0.19 in (1949)
Month to date precipitation 0.09 0.10  
Year to date precipitation 35.09 37.04  
Snow  
Snow 0.00 in - - ()
Month to date snowfall 0.0  
Since 1 June snowfall 0.0  
Since 1 July snowfall 0.0  
Snow Depth 0.00 in    
Sea Level Pressure  
Sea Level Pressure 30.03 in    
Wind  
Wind Speed 7 mph (West)    
Max Wind Speed 17 mph    
Max Gust Speed 22 mph    
Visibility 7 miles    
Events      
T = Trace of Precipitation, MM = Missing Value Source: NWS Daily Summary

Daily Weather History Graph

Daily Weather History Graph

Search for Another Location

Airport:

Trip Planner

Search our weather history database for the weather conditions in past years. The results will help you decide how hot, cold, wet, or windy it might be!

Date:

Astronomy

Aug. 04, 2013 Rise Set
Actual Time 6:01 AM PDT 8:40 PM PDT
Civil Twilight 5:27 AM PDT 9:14 PM PDT
Nautical Twilight 4:44 AM PDT 9:57 PM PDT
Astronomical Twilight 3:53 AM PDT 10:47 PM PDT
Moon 4:06 AM PDT (8/4) 7:07 PM PDT (8/4)
Length of Visible Light 15h 47m
Length of Day
14h 39m
Waning Crescent, 4% of the Moon is Illuminated
Aug 4
Waning Crescent
Aug 6
New
Aug 14
First Quarter
Aug 20
Full
Aug 28
Last Quarter

Hourly Weather History & Observations

Time (PDT) Temp. Dew Point Humidity Pressure Visibility Wind Dir Wind Speed Gust Speed Precip Events Conditions
12:29 AM 55.4 °F 55.4 °F 100% 30.05 in 10.0 mi WNW 6.9 mph - N/A   Mostly Cloudy
12:55 AM 57.0 °F 55.0 °F 93% 30.05 in 10.0 mi WNW 8.1 mph - N/A   Overcast
1:55 AM 55.9 °F 55.9 °F 100% 30.05 in 8.0 mi WNW 5.8 mph - N/A   Overcast
2:55 AM 55.9 °F 55.0 °F 97% 30.04 in 8.0 mi West 3.5 mph - N/A   Overcast
3:55 AM 55.9 °F 55.0 °F 97% 30.04 in 6.0 mi SW 4.6 mph - N/A   Overcast
4:41 AM 55.4 °F 55.4 °F 100% 30.04 in 1.8 mi West 4.6 mph - N/A   Overcast
4:55 AM 55.9 °F 55.0 °F 97% 30.04 in 1.8 mi West 4.6 mph - N/A   Overcast
5:55 AM 55.9 °F 55.9 °F 100% 30.05 in 2.0 mi SW 4.6 mph - N/A   Overcast
6:11 AM 55.4 °F 55.4 °F 100% 30.05 in 3.0 mi SSW 3.5 mph - N/A   Overcast
6:28 AM 55.4 °F 55.4 °F 100% 30.04 in 2.5 mi SSW 3.5 mph - N/A   Overcast
6:35 AM 55.4 °F 55.4 °F 100% 30.04 in 3.0 mi Calm Calm - N/A   Overcast
6:50 AM 55.4 °F 55.4 °F 100% 30.04 in 2.0 mi SSW 3.5 mph - N/A   Overcast
6:55 AM 55.9 °F 55.9 °F 100% 30.05 in 1.8 mi South 3.5 mph - N/A   Overcast
7:20 AM 55.4 °F 55.4 °F 100% 30.05 in 1.0 mi SW 4.6 mph - N/A   Overcast
7:55 AM 55.9 °F 55.9 °F 100% 30.05 in 1.2 mi Calm Calm - N/A   Overcast
8:04 AM 55.4 °F 55.4 °F 100% 30.05 in 1.5 mi SSW 3.5 mph - N/A   Overcast
8:21 AM 55.4 °F 55.4 °F 100% 30.05 in 2.0 mi SSW 4.6 mph - N/A   Overcast
8:52 AM 57.2 °F 57.2 °F 100% 30.05 in 4.0 mi SW 3.5 mph - N/A   Overcast
8:55 AM 57.0 °F 57.0 °F 100% 30.05 in 4.0 mi WSW 3.5 mph - N/A   Overcast
9:55 AM 59.0 °F 57.0 °F 93% 30.05 in 10.0 mi WNW 6.9 mph - N/A   Overcast
10:55 AM 60.1 °F 57.0 °F 90% 30.05 in 10.0 mi WNW 4.6 mph - N/A   Overcast
11:55 AM 63.0 °F 57.9 °F 84% 30.04 in 10.0 mi NW 5.8 mph - N/A   Overcast
12:17 PM 64.4 °F 57.2 °F 77% 30.04 in 10.0 mi NW 8.1 mph - N/A   Scattered Clouds
12:55 PM 66.0 °F 57.9 °F 75% 30.03 in 10.0 mi WNW 8.1 mph - N/A   Clear
1:55 PM 66.0 °F 57.9 °F 75% 30.03 in 10.0 mi WNW 8.1 mph - N/A   Clear
2:55 PM 66.0 °F 57.0 °F 73% 30.01 in 10.0 mi WNW 10.4 mph - N/A   Clear
3:55 PM 64.0 °F 57.0 °F 78% 30.01 in 10.0 mi WNW 11.5 mph - N/A   Clear
4:55 PM 63.0 °F 55.9 °F 78% 30.00 in 10.0 mi WNW 13.8 mph - N/A   Clear
5:22 PM 62.6 °F 55.4 °F 77% 30.00 in 10.0 mi WNW 15.0 mph - N/A   Partly Cloudy
5:45 PM 60.8 °F 55.4 °F 82% 30.00 in 10.0 mi WNW 16.1 mph 20.7 mph N/A   Mostly Cloudy
5:55 PM 60.1 °F 55.0 °F 83% 30.00 in 10.0 mi WNW 13.8 mph - N/A   Mostly Cloudy
6:40 PM 59.0 °F 55.4 °F 88% 30.00 in 10.0 mi West 16.1 mph - N/A   Scattered Clouds
6:55 PM 60.1 °F 55.0 °F 83% 30.00 in 10.0 mi West 9.2 mph 17.3 mph N/A   Partly Cloudy
7:20 PM 57.2 °F 53.6 °F 88% 30.00 in 10.0 mi Variable 5.8 mph - N/A   Mostly Cloudy
7:55 PM 57.0 °F 54.0 °F 89% 30.01 in 8.0 mi WNW 5.8 mph - N/A   Overcast
8:55 PM 55.9 °F 54.0 °F 93% 30.02 in 9.0 mi WSW 4.6 mph - N/A   Overcast
9:55 PM 55.0 °F 54.0 °F 96% 30.03 in 7.0 mi WSW 4.6 mph - N/A   Overcast
10:55 PM 55.9 °F 54.0 °F 93% 30.03 in 8.0 mi WNW 6.9 mph - N/A   Overcast
11:55 PM 55.9 °F 54.0 °F 93% 30.03 in 8.0 mi West 5.8 mph - N/A   Overcast